Flag for Saudi Arabia Weather past 2 weeks in Turaif, Saudi Arabia

Now
77 °F

Clear.


Feels Like: 78 °F
Forecast: 76 / 102 °F
Wind: 9 mph from West

Location: Turaif

Current Time: Jul 29, 2015 at 5:56:36 AM

Latest Report: Jul 29, 2015 at 5:00 AM


Visibility: 10 mi

Pressure: 29.77 "Hg (27.08 "Hg at 827m altitude)

Humidity: 42%

Dew point: 52 °F

Location of TuraifLocation

Historic Weather in Turaif — Graph

°F

Turaif temperature yesterday

Maximum temperature yesterday: 108 °F (at 12:00 PM)
Minimum temperature yesterday: 75 °F (at 6:00 AM)
Average temperature yesterday: 93 °F

Past Weeks' High & Low Weather Summary

 TemperatureHumidityPressure
High120 °F (Jul 14, 5:00 PM)65% (Jul 18, 6:00 AM)29.89 "Hg (Jul 18, 6:00 AM)
Low70 °F (Jul 17, 4:00 AM)7% (Jul 14, 5:00 PM)29.65 "Hg (Jul 14, 4:00 PM)
Average90 °F25%29.78 "Hg
* Reported Jul 14 3:00 AM — Jul 29 3:00 AM, Turaif, Weather by CustomWeather, © 2015

Note: Actual official high and low records may vary slightly from our data, if they occured in-between our weather recording intervals... More about our weather records

Advertising

Turaif weather history for previous 24 hours

 ConditionsComfort  
Time TempWeatherWind HumidityBarometerVisibility
3:00 AM
Wed, Jul 29
79 °FClear.9 mph39%29.77 "Hg10 mi
2:00 AM81 °FClear.13 mph34%29.77 "Hg10 mi
1:00 AM82 °FClear.9 mph35%29.80 "Hg10 mi
12:00 AM84 °FClear.9 mph33%29.80 "Hg10 mi
11:00 PM
Tue, Jul 28
86 °FPassing clouds.7 mph31%29.77 "HgN/A
10:00 PM93 °FClear.9 mph19%29.77 "Hg10 mi
9:00 PM97 °FClear.9 mph18%29.77 "Hg10 mi
8:00 PM99 °FSunny.12 mph18%29.71 "Hg10 mi
7:00 PM100 °FSunny.14 mph17%29.71 "Hg10 mi
6:00 PM102 °FSunny.12 mph16%29.71 "Hg10 mi
5:00 PM104 °FSunny.14 mph16%29.71 "Hg10 mi
4:00 PM106 °FSunny.18 mph13%29.71 "Hg10 mi
3:00 PM108 °FClear.18 mph11%29.71 "Hg4 mi
2:00 PM108 °FSandstorm.25 mph11%29.71 "Hg2 mi
1:00 PM108 °FSandstorm.23 mph10%29.71 "Hg2 mi
12:00 PM108 °FSandstorm.23 mph10%29.74 "Hg3 mi
11:00 AM102 °FClear.21 mph14%29.74 "Hg5 mi
10:00 AM97 °FSunny.9 mph19%29.74 "Hg10 mi
9:00 AM90 °FSunny.7 mph29%29.74 "Hg10 mi
8:00 AM84 °FSunny.12 mph40%29.74 "Hg10 mi
7:00 AM79 °FSunny.9 mph32%29.77 "Hg10 mi
6:00 AM75 °FClear.6 mph50%29.74 "Hg10 mi
5:00 AM77 °FClear.7 mph47%29.74 "Hg10 mi
Weather by CustomWeather, © 2015

See weather overviewHow to use our weather pages